GFSMA_850_temp_159.txt.gz
Temp
18 19 18 19 20 20 21 21 21 21 21 22 22 23 22 22 22 21 21 20 21 20 20 20 20 20 19 19 19 18 18 18 18 18 18 18 17 17 16 16 17 17 17
19 19 19 20 20 20 20 21 22 22 22 22 22 22 22 21 21 21 21 21 21 21 20 20 20 20 19 19 19 19 19 19 18 18 18 18 17 17 16 16 17 17 17
19 20 19 21 21 21 22 21 22 20 21 21 22 21 21 19 21 23 22 21 21 20 20 20 19 20 20 19 19 19 19 19 19 18 18 18 17 17 16 17 17 17 16
19 20 20 20 20 20 20 21 21 22 22 22 22 22 21 19 20 21 23 21 21 20 21 20 20 19 19 19 19 19 19 18 18 18 18 18 17 16 16 17 17 16 16
19 20 20 20 20 20 20 21 21 22 21 22 22 23 22 21 21 20 21 22 21 21 21 21 21 20 19 19 19 19 19 18 18 17 18 17 17 16 16 16 17 16 16
19 19 19 20 21 20 20 21 21 22 21 21 22 22 22 22 21 20 21 20 21 21 21 21 21 20 20 19 19 19 19 19 19 18 17 17 16 16 16 16 16 16 16
20 20 20 19 20 20 20 20 21 22 22 21 22 22 22 22 22 22 21 20 21 21 20 20 20 20 20 19 19 19 19 19 18 18 18 17 17 16 16 16 16 16 16
19 20 19 19 20 20 20 21 21 21 21 21 21 22 22 23 22 22 20 21 22 20 21 20 21 20 20 19 19 19 19 19 18 18 17 17 17 17 16 16 16 16 16
19 20 20 19 20 20 20 20 21 21 21 21 21 21 22 22 22 22 22 21 22 21 21 21 20 21 20 20 19 19 19 19 18 18 18 18 17 17 17 17 16 17 17
20 19 19 20 20 19 20 20 20 20 21 21 21 21 21 21 22 22 22 22 21 22 22 21 21 21 20 19 19 19 19 19 19 18 18 18 18 17 17 17 17 17 17
19 18 19 19 20 20 20 20 19 20 21 21 21 22 22 22 22 21 22 22 21 21 21 21 21 20 20 19 19 20 19 19 19 19 19 18 18 18 17 17 17 17 17
20 19 19 19 20 19 20 19 19 20 20 21 21 21 21 20 21 21 22 21 21 21 22 21 20 20 20 19 19 19 19 19 19 19 19 19 19 18 18 18 17 17 17
19 19 20 19 20 19 19 19 20 20 20 20 21 21 21 20 20 21 21 21 21 21 21 20 19 19 20 20 20 19 19 19 19 19 19 19 19 19 19 18 18 17 17
19 19 20 20 20 20 20 19 19 19 19 19 20 20 21 20 21 21 21 21 21 21 20 20 19 19 19 20 20 19 19 19 19 19 19 18 18 18 19 19 18 17 17
20 19 19 19 19 19 20 19 19 19 19 19 19 20 20 20 21 21 20 20 20 21 21 20 19 18 19 19 19 19 19 19 18 18 19 18 18 18 18 18 18 17 17
20 20 20 19 19 19 19 19 19 19 19 19 19 19 20 20 20 20 20 20 20 20 20 20 19 19 19 19 19 19 19 18 18 18 18 18 18 18 18 18 18 17 17
20 20 21 20 19 19 19 20 19 20 19 19 19 19 20 20 20 20 20 20 20 20 19 19 19 19 19 18 18 18 18 18 18 17 17 17 17 17 17 17 17 17 17
20 20 20 20 19 19 19 20 20 20 20 20 19 19 20 20 20 19 20 20 20 20 19 20 19 19 18 18 18 18 18 18 18 17 17 17 17 17 16 16 16 16 16
20 19 20 20 20 21 20 20 20 20 20 19 20 19 19 19 20 20 20 20 20 19 19 19 20 19 18 18 18 18 17 17 17 17 17 17 16 16 16 16 15 15 15
19 20 20 21 20 20 20 20 20 20 20 20 20 19 19 20 20 20 19 19 19 19 19 19 19 19 18 18 18 17 17 16 16 16 16 16 16 16 16 15 15 15 15
20 20 20 19 19 19 19 19 19 19 20 20 20 19 19 19 20 19 19 19 19 19 19 19 19 18 18 18 17 16 16 16 16 16 16 16 14 15 15 15 15 14 13
21 20 20 19 19 19 19 19 19 19 19 19 19 19 19 19 19 19 19 19 19 19 19 19 18 18 17 16 16 16 16 16 15 15 15 15 15 14 14 14 13 13 13
20 20 20 20 20 20 19 19 19 19 19 19 19 19 18 18 19 19 19 19 19 19 19 18 18 17 16 16 16 16 15 15 15 14 14 14 14 13 13 13 13 13 12
20 20 19 20 20 19 19 19 19 19 19 19 19 19 19 18 19 19 19 19 19 18 18 17 17 16 16 16 15 15 15 15 14 14 14 13 13 13 13 13 13 13 12
19 20 20 19 19 20 20 20 20 19 19 19 19 19 18 19 19 18 18 18 18 17 16 16 16 16 16 15 15 14 13 14 13 14 13 13 13 13 13 13 13 12 12
19 19 19 19 19 19 19 19 19 20 19 19 18 18 18 18 18 18 18 17 17 15 15 15 15 15 15 15 14 14 14 14 14 13 12 13 13 13 12 12 12 12 12

GFSMA_850_temp_162.txt.gz
Temp
19 19 19 19 20 20 21 21 20 21 21 21 21 21 21 20 19 20 19 19 20 19 19 19 19 19 19 19 19 18 18 18 17 17 17 17 17 17 17 16 16 16 17
19 20 20 20 20 21 20 20 20 20 21 20 21 21 21 21 20 19 18 19 20 20 19 19 19 19 19 19 19 18 18 18 17 17 17 17 17 17 16 16 16 16 16
19 19 20 20 20 20 20 20 20 21 22 22 20 21 22 21 20 19 20 20 19 20 20 19 19 19 19 19 19 19 18 18 18 18 17 17 17 17 17 17 17 16 16
20 19 20 20 20 21 21 21 21 21 21 21 21 21 22 22 21 21 21 21 20 20 20 19 19 19 19 19 19 19 18 18 18 17 17 17 17 17 17 17 16 16 16
20 20 20 20 20 21 20 21 21 21 21 22 22 22 21 22 21 21 21 21 20 20 20 19 19 19 19 19 19 19 18 18 18 18 17 17 17 17 16 17 17 16 16
20 21 20 20 20 20 20 20 21 21 21 22 21 22 22 21 21 22 21 21 20 20 20 20 20 19 20 19 19 19 19 18 18 17 17 17 17 17 16 16 17 16 16
19 19 20 20 20 20 20 21 21 21 21 21 21 22 21 21 21 22 22 21 20 21 21 20 20 20 20 20 19 19 19 18 17 17 17 17 17 16 16 16 16 17 16
20 19 19 19 20 21 20 21 21 21 21 21 21 21 22 21 21 22 21 21 21 21 20 20 20 20 20 19 19 19 19 18 18 18 17 17 17 16 16 16 16 16 16
19 19 19 19 20 20 20 20 21 21 21 21 21 21 22 21 22 21 21 21 21 21 21 21 20 20 20 20 19 19 19 18 18 18 18 18 17 17 16 16 16 16 16
19 19 19 20 20 19 20 20 20 20 20 21 21 21 21 21 21 22 21 21 21 21 21 20 20 20 20 20 19 19 19 18 18 18 18 18 17 17 16 16 16 16 16
19 19 19 20 20 20 20 20 19 20 20 20 21 21 21 21 21 21 21 21 21 21 20 20 20 19 19 19 19 19 19 19 18 18 18 18 18 17 17 17 16 16 16
19 19 19 20 20 20 20 20 19 20 20 20 20 21 21 21 21 21 21 21 21 20 20 20 20 19 19 19 19 19 19 18 18 18 18 18 18 18 17 17 17 17 16
19 19 19 19 19 19 19 19 20 20 20 20 20 20 20 20 20 20 20 21 21 20 20 20 20 19 19 19 18 18 18 18 19 18 18 18 18 18 18 18 17 17 17
20 19 19 19 19 19 19 19 19 19 20 20 20 20 20 20 20 20 20 20 20 20 20 20 20 19 19 20 19 18 18 18 18 18 18 18 18 18 18 18 18 17 17
20 20 19 19 19 19 19 19 19 19 19 19 19 19 19 20 21 21 20 20 20 20 20 20 20 20 20 20 19 18 18 18 18 18 18 18 18 18 18 18 17 17 16
19 19 20 20 20 19 19 19 19 19 19 20 20 19 19 20 20 20 20 20 20 20 20 19 19 19 19 20 18 18 17 18 17 18 18 18 17 17 17 18 18 17 17
19 20 20 20 20 19 19 19 19 19 19 20 19 20 20 20 20 20 20 20 19 20 19 19 19 19 19 19 18 18 18 18 17 17 17 17 17 17 17 17 17 17 17
19 19 20 20 20 20 19 19 19 19 19 20 19 19 19 19 19 19 20 20 20 19 20 19 19 19 19 18 18 18 18 18 17 17 17 16 17 16 16 16 16 16 16
19 19 19 20 20 20 19 19 19 19 19 19 20 19 19 19 19 19 19 19 19 19 19 20 19 19 19 18 18 18 18 17 17 16 16 16 16 16 16 16 15 15 15
19 19 19 20 20 20 20 19 19 20 19 19 19 19 19 19 19 19 19 19 19 19 19 19 19 19 18 18 17 17 17 17 16 16 16 16 15 15 15 15 15 15 14
20 20 19 19 20 20 19 19 19 19 19 19 19 19 19 19 19 19 19 19 19 19 19 19 19 18 18 18 17 16 16 16 16 15 15 15 15 15 14 14 14 14 14
19 19 20 19 19 19 20 19 19 19 19 19 19 19 19 19 19 19 19 19 19 19 19 19 19 19 18 17 17 16 16 16 15 15 15 14 14 14 13 14 13 13 13
19 19 19 19 19 19 19 19 19 19 19 19 19 19 19 19 19 19 19 19 19 19 19 19 18 18 17 17 16 16 15 15 15 15 14 14 14 13 13 13 13 13 13
20 19 20 19 19 19 19 19 19 19 19 19 19 19 19 19 19 19 19 18 19 18 18 18 17 16 16 15 15 15 15 14 14 14 13 13 13 13 12 12 13 13 12
19 19 20 19 19 19 19 19 19 19 19 18 18 18 18 18 18 18 18 18 18 18 17 17 16 16 16 15 15 14 14 14 14 13 13 13 13 12 13 12 12 12 12
18 18 18 18 18 19 19 19 19 19 19 19 19 18 18 18 18 18 18 18 17 17 16 15 15 15 15 15 14 14 13 14 14 13 12 12 12 12 12 12 12 11 11

GFSMA_850_temp_165.txt.gz
Temp
19 19 20 20 20 20 19 20 20 20 21 21 21 21 21 22 21 21 20 20 18 18 18 18 18 19 18 18 17 18 18 17 17 17 17 17 16 16 16 16 16 17 16
20 20 20 20 20 20 20 20 20 21 21 21 21 22 21 21 21 20 20 20 19 18 18 18 18 18 18 18 18 18 18 17 17 17 16 16 16 16 16 16 16 16 16
20 20 20 20 20 20 20 20 21 21 21 21 22 22 21 21 21 21 21 20 20 19 18 18 18 18 18 18 18 18 18 18 17 17 17 16 16 16 16 16 16 16 16
20 20 20 19 19 20 20 20 21 20 21 21 21 21 21 21 21 21 21 21 20 20 19 18 18 18 18 18 18 18 18 18 17 17 17 16 16 16 16 17 17 17 16
19 20 19 19 20 20 20 20 20 21 21 21 21 21 21 20 21 21 21 21 20 20 20 19 18 19 18 18 18 18 18 18 17 17 17 16 16 16 16 16 17 16 16
19 19 19 19 20 20 20 20 20 20 21 21 21 21 21 21 21 21 21 21 21 20 19 20 19 19 19 18 18 18 18 18 18 17 17 17 16 16 16 16 17 16 16
19 19 19 19 20 20 20 20 20 20 21 21 21 21 20 21 22 22 22 21 21 20 20 20 20 19 19 19 19 18 18 18 18 18 17 17 17 16 16 16 16 17 16
19 19 20 19 19 20 20 20 20 21 20 21 21 21 21 21 21 22 21 21 21 20 20 20 20 19 19 19 19 19 18 18 18 18 17 17 17 17 16 16 16 16 16
19 19 19 19 19 19 20 20 20 21 21 21 21 20 21 21 21 21 21 21 21 21 20 20 20 19 19 19 19 19 18 18 18 18 18 18 17 17 17 16 16 16 17
19 19 19 19 19 19 20 20 20 20 20 20 20 20 20 21 21 21 21 21 21 21 20 20 19 19 19 19 19 19 18 18 18 18 18 18 18 17 17 17 16 16 16
19 19 18 19 19 19 19 19 19 20 20 20 20 20 20 21 21 21 20 21 21 21 20 20 20 19 19 19 18 18 18 18 18 18 18 18 18 17 17 16 17 16 16
19 19 18 18 18 19 19 19 19 19 20 20 20 20 20 21 20 21 21 21 21 21 21 20 20 20 19 19 19 18 18 18 18 18 18 18 18 18 17 17 17 17 16
20 19 19 18 18 19 19 19 19 19 19 19 20 20 20 20 20 20 20 20 20 20 20 20 20 19 19 19 19 18 18 18 18 18 18 17 17 18 18 18 17 16 16
19 19 19 19 18 18 18 19 19 19 19 19 19 19 19 20 20 20 20 20 20 20 20 20 20 20 19 19 19 18 18 18 17 17 18 17 17 18 18 18 17 17 16
19 19 19 19 19 18 19 19 19 19 19 19 19 19 19 19 19 20 20 20 20 20 20 20 20 19 20 19 18 18 18 18 17 17 17 17 17 17 17 18 17 16 16
19 19 19 19 20 19 19 19 19 19 19 19 19 19 19 19 19 19 20 20 20 19 20 20 19 19 19 19 19 19 18 18 17 17 17 17 17 17 17 17 17 16 16
19 19 19 20 20 19 19 19 19 19 19 19 19 19 19 19 19 19 20 20 19 19 19 19 19 19 19 19 19 18 18 17 17 17 16 16 17 16 16 16 16 16 16
19 19 19 19 19 19 19 19 19 19 19 19 19 19 19 19 19 19 19 20 19 19 19 19 19 19 19 19 19 18 18 17 17 17 16 16 16 16 16 16 15 16 16
19 19 19 19 19 19 19 19 19 19 19 19 19 19 19 19 19 19 19 19 19 19 19 19 19 19 19 19 18 18 18 17 17 17 16 16 16 16 16 15 15 15 15
18 19 19 19 19 19 19 19 19 19 19 18 19 19 19 19 19 19 19 19 19 19 19 19 19 19 18 18 18 17 17 17 17 16 16 15 15 15 15 15 14 14 14
18 19 19 19 19 19 19 19 19 19 19 19 19 19 19 19 19 19 19 19 19 19 19 19 19 19 18 18 18 17 16 16 16 16 15 15 15 14 14 14 14 14 13
18 18 19 19 19 19 19 19 19 19 19 18 19 19 19 19 19 19 19 19 19 18 18 19 19 19 18 18 17 16 16 16 16 15 15 14 14 14 13 13 13 13 13
18 18 18 19 19 19 19 19 19 19 19 19 19 19 18 18 18 18 19 19 19 19 18 18 18 18 18 17 16 16 15 15 15 15 15 14 14 13 13 12 13 12 12
19 18 18 18 18 19 19 19 19 19 18 18 18 18 18 18 18 18 18 18 18 19 18 18 18 18 17 17 16 16 15 15 14 14 14 14 13 13 12 12 12 13 12
19 19 19 19 18 19 19 19 19 18 18 18 19 19 19 18 18 18 18 18 18 18 18 18 17 17 17 17 16 15 15 14 14 14 13 13 13 12 12 12 12 12 12
19 19 19 19 19 19 19 18 19 18 18 18 19 19 19 18 18 18 18 18 18 18 17 17 17 17 16 16 15 15 14 14 14 13 13 12 12 12 12 12 12 11 11

GFSMA_850_temp_168.txt.gz
Temp
18 19 19 20 20 20 20 20 20 20 21 21 21 21 21 21 21 20 20 19 19 19 18 19 19 18 18 18 18 17 17 17 17 17 17 16 16 16 16 16 16 17 17
19 19 20 20 20 20 20 20 20 21 20 21 21 21 21 21 20 20 20 20 20 19 19 19 19 18 18 18 18 17 18 18 18 18 17 17 17 16 16 16 16 16 16
19 20 20 20 20 20 20 20 21 21 21 21 21 21 21 21 21 20 20 20 20 20 19 19 19 19 18 18 18 18 17 18 17 17 17 17 16 16 16 16 16 16 16
19 19 19 20 19 20 20 20 21 20 21 21 20 21 21 20 21 21 21 20 20 20 19 19 19 19 18 17 18 17 17 17 17 16 16 16 16 16 16 16 16 16 16
19 19 19 19 19 19 20 20 20 20 20 20 21 20 21 21 20 21 21 20 20 19 19 19 19 18 18 17 18 18 18 17 17 17 17 16 16 16 15 16 16 16 16
19 19 19 19 19 19 20 20 20 20 21 20 21 21 21 21 21 21 20 20 20 20 19 19 19 18 18 18 18 18 17 17 17 17 17 17 17 16 16 16 16 16 16
19 19 19 19 19 19 20 20 20 20 21 20 21 21 21 21 21 21 21 20 20 20 19 19 19 19 18 18 18 18 18 18 17 17 17 17 17 16 16 16 16 16 16
18 18 19 19 19 19 20 20 20 20 21 20 21 21 21 21 21 21 21 20 20 20 19 19 19 19 19 18 18 18 18 18 18 17 17 17 17 16 16 16 16 16 16
18 19 19 19 19 19 19 20 19 20 20 21 20 20 21 21 21 21 21 20 20 20 20 20 19 19 19 19 19 18 18 18 18 18 17 17 17 16 16 16 16 16 16
19 18 18 18 18 19 19 19 19 19 19 20 20 20 20 20 20 21 21 21 21 20 20 20 19 19 19 19 19 18 18 18 18 18 18 17 16 16 16 16 16 16 16
19 19 18 18 18 18 19 19 19 19 19 20 20 20 20 20 20 20 21 21 21 21 21 20 20 20 19 19 19 18 18 18 18 18 18 18 17 17 17 17 16 16 16
19 19 19 18 18 18 18 19 19 19 19 19 19 20 20 20 20 20 20 20 21 21 21 20 20 20 19 19 18 18 18 18 18 18 18 18 17 17 17 17 17 16 16
19 19 19 19 18 18 18 18 19 19 19 19 19 19 20 20 20 20 20 20 20 20 20 20 20 20 19 19 19 18 18 18 18 18 18 17 17 17 18 18 17 17 16
19 19 19 19 18 18 18 18 18 18 18 19 19 19 19 19 19 19 20 20 20 19 20 20 20 19 19 19 18 18 18 18 18 17 17 18 17 17 18 18 17 17 16
19 19 19 19 19 19 19 19 19 18 18 19 19 19 19 19 19 19 19 19 19 19 20 20 20 19 19 19 19 18 18 18 17 17 17 17 17 17 17 17 17 16 16
20 20 20 19 19 19 19 19 19 19 18 19 19 19 19 19 19 19 19 19 19 19 19 19 19 19 19 19 19 18 18 18 17 17 17 17 17 17 17 17 17 17 16
19 19 20 19 19 19 19 19 19 19 19 19 18 19 19 19 19 18 19 19 19 19 19 19 19 19 19 19 18 18 18 17 17 17 16 16 16 16 16 16 16 16 16
18 18 19 20 20 19 19 19 19 19 19 19 19 18 19 18 19 19 19 19 19 19 19 19 19 19 19 19 18 18 18 17 17 17 16 15 16 16 16 16 16 15 15
19 18 18 19 19 20 20 20 19 19 19 19 19 18 19 18 19 19 19 19 19 19 19 19 19 19 19 18 18 18 18 17 17 17 16 16 15 15 16 16 15 15 15
19 19 19 19 19 19 19 19 19 19 19 19 19 18 18 18 19 19 19 18 18 19 18 19 19 18 18 18 18 18 17 17 17 17 16 15 15 15 15 15 15 14 14
18 19 19 19 19 18 19 19 19 19 19 19 19 18 19 19 19 19 19 19 18 18 18 18 18 18 18 18 18 18 17 16 16 16 16 15 15 14 14 14 14 13 13
18 18 18 19 19 18 18 19 19 18 19 19 19 19 19 19 18 19 19 19 18 18 18 18 18 18 18 18 18 17 17 16 16 16 15 15 14 14 13 13 13 13 13
18 19 18 19 19 19 18 18 18 18 18 18 18 18 18 18 18 18 19 19 18 18 18 18 18 18 18 18 18 17 17 15 16 16 15 14 14 13 13 13 12 12 13
18 18 19 19 19 19 19 18 18 18 18 18 18 18 18 19 18 18 18 18 19 19 19 18 18 18 18 18 17 17 16 15 15 14 14 14 13 13 13 12 12 12 12
18 19 19 19 19 19 19 19 18 19 18 18 18 18 18 18 19 18 18 18 18 18 18 18 18 18 18 17 17 16 16 15 14 14 14 13 13 13 12 12 12 12 11
18 18 18 18 18 19 19 19 19 19 19 19 19 19 19 18 18 18 18 18 18 18 18 18 18 18 17 17 17 16 15 15 14 14 13 13 13 12 12 12 12 12 11

GFSMA_850_temp_171.txt.gz
Temp
19 19 19 19 19 19 20 20 20 21 21 21 21 21 21 21 20 20 20 19 19 19 19 19 19 18 18 18 18 18 17 18 17 17 17 17 17 17 17 17 17 17 17
18 18 19 19 19 20 20 20 20 21 21 21 21 21 21 21 20 20 20 19 19 19 19 19 19 18 18 18 18 18 17 17 17 17 17 16 16 17 17 17 16 16 16
19 19 19 19 20 20 20 20 21 21 21 21 21 21 21 20 20 20 20 20 20 19 19 19 19 19 18 18 18 18 18 17 17 17 17 17 16 16 16 16 16 16 16
19 19 19 20 20 20 20 20 21 20 21 21 21 21 21 20 20 21 21 20 20 19 19 19 19 19 18 18 18 17 17 17 17 17 17 17 16 16 16 16 16 16 16
19 19 20 20 19 20 20 20 20 21 21 21 21 21 21 21 21 21 21 20 20 19 19 19 19 18 18 18 18 17 17 17 17 17 17 16 16 16 16 16 16 17 16
19 19 19 19 19 19 20 20 20 20 21 21 21 21 21 21 21 21 21 20 20 20 19 19 19 18 18 18 18 18 17 17 17 17 17 16 16 16 16 16 16 17 16
19 19 19 19 19 19 19 20 20 20 20 20 21 20 21 21 21 21 21 20 20 20 19 19 19 19 18 18 18 18 17 17 17 17 17 16 16 16 16 16 16 16 16
19 19 19 19 19 19 19 20 20 20 20 20 20 21 21 21 21 21 21 20 20 20 19 19 19 19 19 18 18 18 18 17 17 17 17 17 16 16 16 16 16 16 16
19 19 19 19 19 19 19 19 20 20 19 20 20 20 21 21 21 21 21 21 20 20 20 20 19 19 19 19 19 18 18 18 17 17 17 17 17 16 16 16 16 16 16
19 19 19 19 19 19 19 19 19 20 19 19 20 20 20 20 21 21 21 21 21 20 20 20 20 19 19 19 18 18 18 18 18 18 17 17 16 16 16 16 16 16 16
19 19 19 19 19 19 19 19 19 19 19 19 19 20 20 20 21 20 21 20 21 21 20 20 20 20 19 19 19 18 18 18 18 18 18 18 17 17 17 16 16 16 16
19 19 19 19 19 19 19 19 19 19 19 19 19 19 19 19 19 19 20 20 20 21 20 20 20 20 19 19 19 18 18 18 18 18 18 18 18 17 17 17 17 16 16
19 19 19 19 19 19 19 19 19 20 19 19 19 19 19 20 20 20 20 19 19 20 20 20 20 20 19 19 18 18 18 18 18 18 18 18 18 18 18 18 18 17 16
19 19 19 19 19 19 19 19 19 19 19 18 19 19 19 19 19 19 19 19 19 19 19 19 20 20 19 19 19 18 18 18 18 17 17 18 18 18 18 18 18 17 17
19 19 19 19 19 19 19 19 19 19 18 18 19 19 19 19 19 19 19 19 19 19 20 19 20 19 19 19 19 18 18 18 18 17 17 17 17 17 17 18 17 17 17
19 19 19 19 19 19 19 19 19 19 19 19 18 18 19 19 19 19 19 19 19 19 18 19 19 19 19 19 19 18 18 18 18 17 17 17 17 17 17 17 17 17 17
19 19 19 18 19 19 19 19 19 19 19 19 19 18 18 18 19 19 19 19 19 19 19 19 19 19 19 19 18 18 18 18 17 17 17 17 17 16 17 17 16 16 16
19 19 19 18 18 18 18 18 19 19 19 18 19 18 18 18 18 18 18 18 18 18 19 19 18 18 18 18 18 18 18 17 17 17 16 16 15 16 16 16 16 15 15
19 19 19 19 19 19 18 19 18 18 19 19 19 18 19 18 19 18 19 19 18 18 19 19 18 18 18 18 18 18 18 17 17 17 16 16 16 15 15 16 15 15 15
19 19 19 19 19 19 19 19 19 19 19 19 19 19 19 19 18 18 18 18 18 18 18 19 18 18 18 19 18 18 18 18 17 17 17 16 15 15 15 15 15 14 15
19 19 19 19 19 19 19 19 18 19 19 19 19 19 19 19 19 19 19 19 18 19 18 18 18 17 17 19 19 18 18 17 16 16 16 15 15 15 15 14 14 14 14
18 18 19 19 19 18 19 19 19 18 18 18 19 19 19 19 19 19 19 19 19 19 19 19 18 18 18 18 18 18 18 17 16 16 16 15 15 15 14 14 13 13 13
18 18 18 19 19 18 19 19 19 18 18 19 19 19 19 18 19 18 19 19 18 18 18 18 18 18 18 18 18 18 18 17 16 16 15 15 15 14 14 13 13 13 12
17 17 18 19 19 18 18 19 19 19 18 19 18 18 18 19 19 19 18 18 19 18 18 18 18 18 18 18 18 17 17 16 15 15 15 14 14 14 13 13 13 12 12
17 17 18 19 19 19 18 19 19 19 19 19 19 19 19 19 19 19 18 18 18 18 19 19 18 18 19 18 18 17 17 16 15 15 14 14 14 13 12 12 12 12 12
16 17 18 18 18 18 18 19 19 19 19 19 20 20 19 19 19 19 18 18 18 18 18 18 18 18 18 18 17 16 15 16 14 14 14 14 13 12 11 11 12 12 11